Regional Weather Roundup
Issued by NWS Upton, NY

Home | Current Version | Previous Version | Text Only | Print | Product List | Glossary On
Versions: 1 2 3 4 5 6 7 8 9 10 11 12 13 14 15 16 17 18 19 20 21 22 23 24 25 26 27 28 29 30 31 32 33 34 35 36 37 38 39 40 41 42 43 44 45 46 47 48 49 50
000
ASUS41 KOKX 310514
RWROKX

Regional Weather Roundup
National Weather Service New York NY
100 AM EDT SAT JUL 31 2021

Note: "FAIR" indicates few or no clouds below 12,000 feet with no
significant weather and/or obstructions to visibility.

NYZ071-072-176-178-NJZ106-104-310600-
New York City Metro Area

CITY           SKY/WX    TMP DP  RH WIND       PRES   REMARKS
Central Park   CLEAR     67  46  47 VRB7      30.00S
Bronx Lehman C   N/A     64  48  55 NW9         N/A
LaGuardia Arpt CLEAR     68  47  46 NW16      29.95S
Queens College   N/A     66  48  52 N9          N/A
Kennedy Intl   CLEAR     67  47  48 N17       29.96R
Breezy Point     N/A     68 N/A N/A N12G17      N/A
Brooklyn Coll    N/A     68  46  45 N8          N/A
Staten Island    N/A     66  48  52 N12         N/A
Newark/Liberty CLEAR     68  48  48 N16       29.97S
Teterboro      CLEAR     63  47  55 N5        29.96S
$$

NYZ177-179-078>081-310600-
Long Island New York

CITY           SKY/WX    TMP DP  RH WIND       PRES   REMARKS
Jones Beach      N/A     68 N/A N/A N16         N/A
Wantagh          N/A     66  48  52 N9          N/A
Hempstead      NOT AVBL
Matinecock Pt    N/A     66 N/A N/A NW15        N/A
Farmingdale    CLEAR     67  47  48 N8        29.96R
MacArthur/ISP  CLEAR     66  49  54 N10G21    29.95S
Shirley        CLEAR     65  49  56 NW10      29.95S
Mt Sinai Harb    N/A     66 N/A N/A N9G18       N/A
Westhampton    CLEAR     65  50  58 NW12      29.95S
East Hampton   FAIR      65  50  58 NW7G16    29.93S
Southold         N/A     66  52  59 N15         N/A
Montauk          N/A     67  53  61 NW15G22   29.93S
$$

NYZ052-065-067-310600-
Hudson Valley

CITY           SKY/WX    TMP DP  RH WIND       PRES   REMARKS
White Plains   CLEAR     60  47  61 NW8       29.97R
Larchmont Harb   N/A     66 N/A N/A N1          N/A
Croton On Huds   N/A     64 N/A N/A N7          N/A
Somers           N/A    N/A N/A N/A N1          N/A
Brewster         N/A     54  48  82 NW1         N/A
Newburgh       CLEAR     55  50  82 NW8       29.99R
Montgomery     CLEAR     54  49  83 W5        29.99R
Otisville        N/A     54  48  82 S2          N/A
Warwick          N/A     54  50  87 SW1         N/A
Suffern          N/A     59  48  67 NW1         N/A
Poughkeepsie   CLEAR     56  49  77 CALM      29.98R
Albany         PTCLDY    52  49  89 W7        29.97R
$$

NJZ001-105-106-008-010-013-015-019>022-104-310600-
New Jersey

CITY           SKY/WX    TMP DP  RH WIND       PRES   REMARKS
Newark/Liberty CLEAR     68  48  48 N16       29.97S
Teterboro      CLEAR     63  47  55 N5        29.96S
Caldwell       CLEAR     66  46  48 NW7       29.99R
Somerville     CLEAR     64  49  57 N7        29.96S
Linden         FAIR      66  46  47 N6        29.97F
Perth Amboy      N/A     66 N/A N/A N12         N/A
Sussex         CLEAR     54  50  86 CALM      30.01S
Andover          N/A     61  50  67 VRB5      30.00F
Trenton        CLEAR     62  52  69 N6        29.98R
Millville      CLEAR     71  53  52 NE8       29.97R
Atlantic City  CLEAR     64  55  72 N6        29.97R
Wrightstown    CLEAR     62  52  69 N5        29.97R
Toms River     NOT AVBL
Belmar         CLEAR     65  50  58 NW7       29.98S
$$

PAZ047>061-062-071-310600-
Eastern Pennsylvania

CITY           SKY/WX    TMP DP  RH WIND       PRES   REMARKS
Philadelphia   PTCLDY    70  48  45 N15       29.98R
Allentown      CLEAR     61  48  62 N8        30.00S
Scranton       PTCLDY    57  51  80 CALM      30.03S
$$

CTZ002-004>006-009-010-012-RIZ004-006-007-MAZ004-011-015-310600-
Southern New England

 In CT

CITY           SKY/WX    TMP DP  RH WIND       PRES   REMARKS
Bradley Intl   CLEAR     60  49  66 NW7       29.95R
Hartford       CLEAR     64  48  56 VRB7      29.95R
Danbury        CLEAR     59  47  64 W3        29.99R
Wtrbury/Oxford CLEAR     59  48  67 NW5       29.98S
Norwalk Harbor   N/A     63 N/A N/A NW9         N/A
Bridgeport     CLEAR     65  48  54 NW9       29.95S
Meriden        CLEAR     63  47  55 N3        29.95S
New Haven      CLEAR     66  49  54 N10G17    29.95S
Chester        FAIR      63  50  63 NW8       29.96R
Groton         CLEAR     63  50  62 NW14      29.92R
Willimantic    CLEAR     62  50  64 NW7       29.95R

 In RI

CITY           SKY/WX    TMP DP  RH WIND       PRES   REMARKS
Providence     PTCLDY    63  48  58 W5        29.92R
Block Island   CLEAR     64  52  64 NW10      29.92S
Westerly       CLEAR     61  51  70 VRB5      29.91S

In MA

CITY           SKY/WX    TMP DP  RH WIND       PRES   REMARKS
Boston         CLEAR     65  46  50 NW8       29.89S
Worcester      CLEAR     56  44  64 NW7       29.94R
Westfield      CLEAR     59  51  75 NW5       29.95R
Provincetown   CLEAR     65  50  58 NW20G26   29.88S
Nantucket      CLEAR     70  53  54 NW17G25   29.88R
$$

ANZ330-335-338-340-345-350-353-355-310600-
Coastal Marine Observations


STATION/POSITION TIME  SKY/WX   TEMP    WIND        PRES    VSBY  WAVE
                                AIR SEA DIR/SP/G                  HT/PER
                 (UTC)          (F)     (DEG/KT/KT) (MB)    (MI)  (FT/S)
NY Harb Entrance 0450               73  350/ 19/ 23 1013.5          3/ 7
20 S Fire Island 0450               69              1013.2          4/ 4
Great South Bay  0415            70 80  340/ 14/ 17   N/A
23 SSW Montauk P 0450            69 71  330/ 19/ 23 1013.1          4/ 4
15 E Barnegat Li 0456               75                N/A           5/ 5
Hudson Canyon    0450            74 74  340/ 19/ 23 1013.8          4/ 7
Kings Point      0424            68      20/ 15/ 19 1015.6
Execution Rocks  0445            68     320/  8/ 10   N/A
Western LI Sound 0445            67     340/ 12/ 17   N/A
Central LI Sound NOT AVBL
Robbins Reef     0430            68     350/ 17/ 20 1014.4
$$


>>>>>>>>>>>>>>>>>>>>>>>>>>>> KEY <<<<<<<<<<<<<<<<<<<<<<<<<<<
>                                                          <
>     SKY/WX - Sky Condition/Present Weather               <
>     TMP    - Temperature in Fahrenheit                   <
>     DP     - Dew Point in Fahrenheit                     <
>     RH     - Relative Humidity in Percent                <
>     WIND   - Direction (from) and Speed in MPH           <
>     PRES   - Mean Sea Level Pressure (inches of Hg)      <
>     WCI    - Wind Chill Index                            <
>     VSB    - Visibility in Miles                         <
>     HX     - Heat Index                                  <
>     TC     - Temperature in Celsius                      <
>     VRB    - Variable Wind Direction                     <
>                                                          <
>>>>>>>>>>>>>>>>>>>>>>>>>>>> KEY <<<<<<<<<<<<<<<<<<<<<<<<<<<



USA.gov is the U.S. government's official web portal to all federal, state and local government web resources and services.